Location: Unspecified
(42.2730°N, 83.7130°W)
Time: 02:41:03
(UTC+00:00)

Daily predictions for brighter satellites

Satellite Brightness Start Highest point End
(mag) Time Altitude Azimuth Time Altitude Azimuth Time Altitude Azimuth
Cosmos 1743 Rocket 3.6 01:50:43 10° N 01:55:05 64° E 01:59:26 10° SSE
Cosmos 923 Rocket 4.0 01:58:47 10° SSW 02:03:59 81° ESE 02:09:12 10° NNE
Cosmos 494 Rocket 4.2 01:59:07 10° S 02:04:07 49° ESE 02:09:09 10° NNE
IRS-1A Rocket 4.4 01:59:53 10° SSE 02:05:42 79° ENE 02:11:26 10° NNW
Cosmos 1833 Rocket 3.3 02:03:26 10° NNW 02:08:56 55° WSW 02:14:25 10° S
Meteor 1-22 Rocket 4.1 02:04:29 10° N 02:09:48 76° E 02:15:11 10° SSE
USA 186 2.7 02:09:28 13° ESE 02:10:17 15° ENE 02:11:32 10° NNE
Cosmos 2344 3.6 02:02:12 10° SSW 02:10:27 89° SE 02:17:39 10° NE
Cosmos 1633 Rocket 3.8 02:07:01 10° N 02:11:05 37° ENE 02:14:45 12° SE
Cosmos 2112 Rocket 4.1 02:06:59 10° S 02:12:00 55° ESE 02:17:04 10° NNE
NOSS 2-1 (C) 3.2 02:07:52 10° SW 02:12:02 79° NW 02:15:16 10° NNE
ATLAS 5 CENTAUR R/B 2.1 02:14:56 14° SE 02:15:58 17° ESE 02:17:56 10° ENE
ADEOS 3.7 02:13:44 10° S 02:18:55 79° WSW 02:24:09 10° NNW
YAOGAN 11 4.3 02:15:39 10° NNE 02:19:54 50° E 02:24:04 10° S
CZ-4B R/B 3.5 02:15:25 10° S 02:20:44 66° WSW 02:26:01 10° NNW
Meteor 1-23 Rocket 4.4 02:15:29 10° SSE 02:20:49 51° E 02:26:12 10° NNE
Iridium 45 4.3 02:21:29 12° SSE 02:24:13 55° E 02:27:21 10° NNE
Cosmos 1371 Rocket 4.2 02:19:21 10° NNW 02:24:28 56° ENE 02:28:38 15° SE
Cosmos 2315 Rocket 4.1 02:22:11 10° SSE 02:28:12 56° E 02:34:15 10° NNE
Cosmos 1174 3.6 02:24:23 10° SSW 02:28:32 61° ESE 02:31:59 10° NE
Cosmos 1943 Rocket 2.7 02:26:44 10° SW 02:32:19 64° WNW 02:37:55 10° NNE
Cosmos 1953 2.4 02:30:31 10° NNW 02:34:02 62° W 02:37:25 11° S
Cosmos 883 Rocket 4.5 02:28:03 10° S 02:34:04 64° E 02:40:07 10° NNE
S3M 3.9 02:28:37 10° S 02:34:43 80° E 02:40:56 10° N
ARIANE 6 FM1 Upper Stage 2.9 02:34:49 10° SSW 02:38:51 45° ESE 02:42:49 10° NE
USA 238 DEB 4.5 02:33:12 10° WSW 02:39:07 52° NW 02:45:39 10° NNE
USA 238 4.4 02:33:25 10° SW 02:39:20 52° NW 02:45:53 10° NNE
USA 245 3.0 02:41:33 26° ESE 02:42:21 34° ENE 02:44:34 10° N
Cosmos 1709 Rocket 4.0 02:36:56 10° N 02:43:22 78° E 02:48:48 15° SSE
SWAS 4.3 02:40:00 10° SSW 02:44:01 85° WNW 02:48:05 10° NNE
Cosmos 2082 Rocket 2.5 02:38:36 10° NNW 02:44:08 56° ENE 02:48:02 19° SE
Okean-O 2.9 02:40:27 12° S 02:44:24 66° WSW 02:48:46 10° NNW
Iridium 4 Rocket 3.4 02:40:03 10° S 02:44:59 74° W 02:49:32 10° N
Cosmos 2278 Rocket 2.6 02:39:44 10° SSW 02:45:21 67° WNW 02:51:00 10° NNE
CZ-4 R/B 4.1 02:46:20 10° WSW 02:48:06 13° W 02:49:53 10° WNW
Okean 2 3.1 02:47:20 17° S 02:50:10 68° E 02:54:01 10° NNE
IRS-1C Rocket 4.4 02:46:54 19° SE 02:50:27 53° ENE 02:55:33 10° N
Cosmos 1328 Rocket 4.2 02:48:55 10° SSW 02:53:09 54° W 02:57:22 10° N
CZ-4B R/B 3.1 02:50:59 24° SE 02:53:12 55° ENE 02:57:08 10° N
Meteor 1-15 Rocket 4.5 02:48:05 10° NNW 02:53:44 67° W 02:58:43 13° S
Cosmos 1048 Rocket 4.0 02:49:36 10° S 02:54:45 65° ESE 03:00:00 10° NNE
Cosmos 1656 Rocket 3.9 02:52:03 13° S 02:56:39 48° ESE 03:01:59 10° NE
Cosmos 1470 Rocket 3.5 02:53:21 10° N 02:57:48 79° E 03:00:29 23° SSE
Okean 3 3.8 02:59:41 27° SE 03:01:20 42° E 03:05:09 10° NNE
SPOT 3 Rocket 3.5 02:58:44 20° SSE 03:02:21 89° WSW 03:07:33 10° NNW
Cosmos 1624 Rocket 4.3 02:57:41 10° NNW 03:02:58 66° WSW 03:06:39 20° S
Meteor 1-16 Rocket 4.3 02:59:13 10° NNW 03:04:58 81° W 03:09:18 19° S
Cosmos 1933 Rocket 4.2 03:01:00 10° N 03:05:05 39° ENE 03:06:50 27° SE
Okean O Rocket 2.8 03:02:34 12° SSW 03:06:18 38° W 03:10:26 10° NNW
USA-17 4.2 03:03:52 10° NW 03:07:02 84° SW 03:08:11 38° SSE
SL-12 R/B(2) 4.3 03:02:45 10° S 03:10:04 52° ESE 03:18:50 10° NE
Cosmos 2056 Rocket 4.1 03:08:32 10° NNW 03:13:27 49° WSW 03:16:51 19° S
Timation 2 Rocket 4.3 03:07:23 10° SW 03:13:41 70° WNW 03:20:19 10° NNE
Terra 4.4 03:13:10 10° WSW 03:15:36 14° W 03:18:03 10° WNW
CZ-2C R/B 3.1 03:16:23 28° ENE 03:16:23 28° ENE 03:18:47 10° N
USA 59 Rocket 3.0 03:16:39 10° WNW 03:17:52 12° NW 03:19:02 10° NNW
CZ-4B R/B 3.5 03:15:24 27° SSE 03:18:22 85° ENE 03:23:39 10° NNW
Cosmos 2369 Rocket 3.0 03:17:47 27° SE 03:19:23 32° ESE 03:24:17 10° NE
Ariane Rocket 3.0 03:17:13 26° S 03:20:10 82° WSW 03:25:16 10° NNW
GP-B 4.4 03:16:41 10° NNW 03:20:41 36° W 03:24:40 10° SSW
SL-4 R/B 3.5 03:19:08 10° W 03:22:09 30° NNW 03:25:05 10° NE
Cosmos 1812 4.0 03:21:29 10° N 03:21:42 12° NNE 03:21:42 12° NNE
NOSS 3-1 (A) 4.1 03:30:31 22° E 03:30:31 22° E 03:33:51 10° ENE
NOSS 3-1 (C) 2.7 03:27:14 20° SSW 03:30:23 69° ESE 03:35:37 10° NE
USA 81 4.1 03:26:58 10° N 03:32:13 66° E 03:34:27 34° SSE
Cosmos 2297 4.3 03:32:15 31° SE 03:33:49 37° ESE 03:39:00 10° NE
Cosmos 614 Rocket 3.8 03:33:24 23° SSW 03:36:39 87° ESE 03:41:43 10° NNE
Cosmos 1869 Rocket 3.6 03:33:14 10° N 03:37:33 65° E 03:38:46 43° SE
COSMOS 2406 3.2 03:36:25 10° NNW 03:42:07 76° ENE 03:44:33 36° SE
Cosmos 1733 Rocket 4.2 03:40:21 10° NNE 03:44:08 29° ENE 03:44:55 27° E
Exosat Rocket 4.2 03:41:55 29° S 03:45:05 64° ESE 03:53:04 10° NNE
Cosmos 1400 Rocket 3.5 03:44:37 10° NNW 03:48:00 39° W 03:48:57 32° SW
Cosmos 2074 Rocket 3.9 03:45:57 10° N 03:52:11 84° E 03:55:00 35° SSE
Cosmos 1110 Rocket 4.4 03:48:28 10° NNW 03:53:29 53° WSW 03:55:29 33° SSW
NOSS 7 (E) 4.4 03:51:08 10° NNW 03:54:16 65° NE 03:54:20 65° ENE
ATLAS 5 CENTAUR R/B 3.1 03:55:19 10° W 03:57:39 22° NW 04:00:06 10° N
Cosmos 1862 Rocket 3.9 04:01:31 45° ESE 04:01:48 45° E 04:05:55 10° NNE
ARIANE 5 R/B 4.2 04:01:59 21° E 04:03:02 23° ENE 04:06:31 10° NNE
COSMOS 2455 3.0 04:03:09 40° SSE 04:04:48 51° ESE 04:10:37 10° NE
Lacrosse 4 Rocket 2.3 04:02:05 10° NNW 04:06:01 37° NE 04:06:56 33° E
Nadezhda 1 Rocket 3.9 04:05:31 38° S 04:08:04 78° E 04:14:21 10° N
Cosmos 1452 Rocket 3.7 04:05:38 10° NNW 04:10:49 60° WSW 04:12:25 41° SSW
USA 276 4.4 04:10:13 10° NNW 04:11:53 16° NNE 04:12:27 15° NNE
Cosmos 1818 3.5 04:11:46 32° SSW 04:14:22 87° ESE 04:19:51 10° NNE
Cosmos 972 Rocket 3.8 04:09:25 10° NNW 04:14:42 84° ENE 04:15:54 53° SSE
USA 290 3.2 04:12:26 10° N 04:14:57 41° NNE 04:14:57 41° NNE
Cosmos 1315 Rocket 3.6 04:12:19 10° N 04:15:47 36° ENE 04:15:47 36° ENE
ALOS 2 3.8 04:20:31 29° E 04:21:16 30° ENE 04:25:07 10° N
Cosmos 2228 Rocket 3.5 04:21:36 46° E 04:21:42 46° E 04:25:57 10° NNE
Cosmos 2263 4.1 04:25:21 42° SSW 04:27:23 87° ESE 04:33:08 10° NNE
Cosmos 2082 Rocket 3.9 04:23:40 10° NW 04:27:42 21° W 04:29:51 17° SW
Cosmos 220 Rocket 3.9 04:33:57 10° NNW 04:38:07 68° ENE 04:38:11 67° ENE
ACS3 Solar Sail 3.3 04:34:47 10° NE 04:38:44 19° E 04:39:34 18° E
Meteor 1-24 Rocket 3.8 04:38:51 48° S 04:40:40 84° E 04:46:42 10° N
SL-8 Rocket 4.1 04:37:22 10° N 04:43:30 65° E 04:45:17 45° SE
Lacrosse 5 rocket 4.0 04:44:19 10° N 04:45:42 12° NNE 04:47:03 10° NE
Okean 1-7 3.8 04:54:19 39° W 04:54:55 41° WNW 04:58:57 10° N
Helios 1A 4.1 04:51:34 10° N 04:55:09 33° WNW 04:55:58 30° W
PSLV R/B 3.6 04:52:14 10° NNE 04:56:53 69° ESE 04:57:02 69° ESE
CZ-2C R/B 3.9 04:53:12 10° N 04:57:54 69° WNW 04:58:38 58° SW
Cosmos 2369 Rocket 3.4 04:59:29 17° WSW 05:03:15 37° WNW 05:08:27 10° N
Cosmos 1269 Rocket 4.1 05:05:24 55° ESE 05:05:47 56° ESE 05:10:58 10° NNE
USA 215 4.1 04:59:42 10° E 05:05:51 47° NNE 05:12:02 10° NW
IRIDIUM 104 4.4 05:01:45 10° N 05:06:57 70° W 05:07:49 58° SW
Helios 1B rocket 3.1 05:08:12 38° WNW 05:08:12 38° WNW 05:10:43 10° NNW
Cosmos 1833 4.1 05:02:06 10° NNW 05:07:47 80° WSW 05:08:51 60° S
Cosmos 1300 Rocket 4.2 05:03:46 10° N 05:07:52 42° ENE 05:07:55 42° E
Cosmos 1356 Rocket 3.4 05:04:15 10° NNW 05:08:00 74° NW 05:08:00 74° NW
Cosmos 407 Rocket 4.4 05:10:38 32° E 05:10:38 32° E 05:15:06 10° NE
Cosmos 371 Rocket 4.1 05:11:13 37° E 05:11:13 37° E 05:15:24 10° NE
Cosmos 1140 Rocket 3.2 05:14:00 71° SSE 05:14:30 80° ESE 05:19:38 10° NNE
Spot 4 4.0 05:17:15 57° WSW 05:17:35 59° W 05:22:22 10° NNW
Cosmos 2341 Rocket 4.0 05:11:24 10° NNW 05:17:35 73° W 05:19:10 51° SSW
In-Cosmos 22 Rocket 4.4 05:18:00 49° SE 05:18:50 54° E 05:24:22 10° NNE
NOSS 3-1 (A) 3.9 05:17:49 25° WSW 05:20:11 44° NW 05:25:28 10° NNE
Meteor 2-5 Rocket 4.4 05:24:09 35° WSW 05:26:07 48° WNW 05:31:51 10° N
Cosmos 1763 Rocket 4.2 05:24:11 10° N 05:28:59 43° ENE 05:30:18 36° ESE
Cosmos 1869 4.2 05:26:05 10° NNW 05:28:30 37° NW 05:28:30 37° NW
Cosmos 1656 3.9 05:30:13 48° ESE 05:30:38 49° ESE 05:35:57 10° NE
Cosmos 1703 Rocket 3.8 05:31:29 60° W 05:31:34 60° W 05:35:57 10° N
CZ-2C R/B 2.8 05:26:25 10° NNE 05:31:37 86° WNW 05:32:13 70° SSW
Cosmos 1346 Rocket 3.9 05:38:07 32° ENE 05:38:07 32° ENE 05:40:40 10° NNE
ARIANE 5 R/B 3.7 05:39:21 33° W 05:39:21 33° W 05:43:08 10° NNW
Cosmos 2084 Rocket 4.1 05:44:28 43° ENE 05:44:28 43° ENE 05:47:25 10° NE
Lacrosse 4 Rocket 3.4 05:40:25 10° WNW 05:42:19 18° W 05:42:19 18° W
MetOp-A 3.6 05:47:03 60° NNW 05:47:03 60° NNW 05:50:13 10° NNW
Nadezhda 3 Rocket 4.0 05:46:24 53° SSE 05:47:57 76° E 05:54:16 10° N
ATLAS 3B R/B 3.8 05:48:52 29° SE 05:50:37 32° ESE 05:57:19 10° NE
COSMOS 2455 4.4 05:46:13 12° WSW 05:50:58 30° NW 05:56:14 10° NNE
Cosmos 1821 Rocket 4.1 05:49:15 10° NNW 05:55:14 58° W 05:56:34 47° SW
CENTAUR R/B 4.0 05:48:53 10° NNW 05:56:59 53° NE 06:06:09 10° ESE
ALOS 2 4.1 05:57:54 25° W 05:57:54 25° W 06:01:12 10° NW
Meteor 2-19 Rocket 4.4 05:56:59 54° SSE 05:58:25 79° E 06:04:29 10° N
Cosmos 2360 4.1 06:00:46 60° S 06:01:46 77° ESE 06:07:29 10° NNE
SJ 16-02 1.2 06:03:14 81° NNE 06:03:14 81° NNE 06:07:18 10° NNE
CZ-2C R/B 2.6 06:04:50 58° SW 06:05:27 63° W 06:10:44 10° NNW
Cosmos 1697 Rocket 3.7 06:05:34 30° ESE 06:06:23 31° ESE 06:11:16 10° NE
Cosmos 540 Rocket 3.3 06:02:46 10° NNW 06:07:52 87° ENE 06:08:36 66° SSE
NOSS 2-2 (C) 3.6 06:05:26 10° NW 06:09:08 68° W 06:09:08 68° W
CRYOSAT 2 4.4 06:10:01 60° WSW 06:10:23 62° W 06:15:15 10° NNW
NOSS 2-2 (D) 3.9 06:10:04 10° NNW 06:13:53 61° NE 06:15:09 43° ESE
SL-8 R/B 3.7 06:12:25 10° WNW 06:17:11 80° NNE 06:19:28 31° ESE
Cosmos 468 Rocket 4.3 06:13:47 10° NNW 06:18:49 58° ENE 06:20:26 40° SE
Cosmos 921 Rocket 4.1 06:18:29 31° WNW 06:18:50 32° WNW 06:22:35 10° N
Cosmos 2227 Rocket 4.1 06:15:11 10° N 06:19:51 25° NE 06:24:28 10° ESE
Cosmos 405 Rocket 3.9 06:22:26 29° NE 06:22:26 29° NE 06:24:09 10° NNE
ACS3 Solar Sail 1.8 06:15:41 10° N 06:21:18 63° WNW 06:22:53 45° SW
Cosmos 2242 Rocket 3.4 06:21:22 78° SE 06:21:31 80° E 06:25:57 10° N
Gbstr 26 Del rocket 4.1 06:19:07 34° WSW 06:22:08 81° NNW 06:29:29 10° NE
Lacrosse 5 rocket 1.8 06:19:34 10° NW 06:22:35 46° NNE 06:22:35 46° NNE
Cosmos 2251 Rocket 3.5 06:27:49 58° S 06:28:48 74° ESE 06:34:09 10° NNE
SL-4 R/B 3.9 06:35:37 10° NW 06:38:13 22° NNE 06:40:46 10° ENE
GEOS 3 Rocket 3.6 06:37:29 40° SSE 06:39:32 86° SW 06:44:57 10° NW
USA 229 DEB 3.3 06:42:20 47° SSW 06:44:14 88° SE 06:50:51 10° NE
USA 229 3.3 06:42:23 47° SSW 06:44:17 86° ESE 06:50:54 10° NE
Cosmos 841 Rocket 4.2 06:41:39 10° N 06:46:43 50° ENE 06:49:36 24° SE
Cosmos 332 Rocket 3.6 06:47:15 63° S 06:48:00 83° ESE 06:52:45 10° NNE
USA 215 3.2 06:45:40 32° SSE 06:48:44 61° SW 06:55:11 10° NW
Cosmos 1535 Rocket 4.5 06:42:48 10° N 06:49:04 79° E 06:51:40 37° SSE
Cosmos 2297 Rocket 2.1 06:43:39 10° NNW 06:49:20 84° WSW 06:51:19 42° SSE
BREEZE-M DEB (TANK) 3.4 06:43:51 10° WNW 06:48:34 33° W 06:48:34 33° W
Cosmos 2221 Rocket 4.2 06:50:20 41° SE 06:51:20 49° E 06:55:43 10° NNE
IDEFIX/ARIANE 42P 3.2 06:49:44 10° NNE 06:54:45 45° E 06:56:32 33° SSE
Cosmos 1980 Rocket 3.2 06:54:00 27° SE 06:55:59 35° ESE 07:01:06 10° NE
Cosmos 1378 Rocket 3.8 06:56:39 48° W 06:56:59 49° W 07:01:10 10° N
CZ-4C R/B 3.9 06:54:45 10° N 06:57:56 39° WNW 06:57:56 39° WNW
ADEOS Rocket 3.3 06:52:28 10° NNE 06:58:09 52° E 07:00:20 33° SSE
Cosmos 2263 Rocket 3.8 06:53:55 10° N 06:58:56 33° NE 07:03:57 10° ESE
ISS -1.6 07:03:48 19° ESE 07:03:48 19° ESE 07:05:21 10° E
Meteor 2-21 4.4 07:00:55 39° S 07:03:25 83° E 07:09:37 10° N
Cosmos 1455 Rocket 4.4 07:00:53 10° N 07:04:52 34° ENE 07:07:18 20° SE
USA 308 3.7 07:02:30 10° NW 07:06:21 47° NNE 07:10:22 10° ESE
Cosmos 1934 Rocket 4.5 07:00:40 10° NNW 07:06:41 46° W 07:08:41 35° SW
Sich 1 Rocket 3.9 07:03:05 10° N 07:07:34 62° E 07:09:09 37° SE
DELTA 2 DEB (DPAF) 4.3 07:07:37 10° N 07:10:57 40° WNW 07:10:57 40° WNW
Cosmos 1954 Rocket 4.4 07:14:02 37° WSW 07:15:39 52° WNW 07:20:41 10° N
Cosmos 292 Rocket 3.7 07:21:04 47° SSW 07:22:25 80° WNW 07:27:10 10° NNE
BREEZE-M DEB (TANK) 4.0 07:21:40 37° SSW 07:23:43 61° SE 07:38:54 10° ENE
CZ-2D R/B 4.2 07:23:23 10° NE 07:27:18 20° E 07:31:10 10° SE
Cosmos 1153 Rocket 4.4 07:23:23 10° N 07:29:34 87° E 07:33:21 25° S
Cosmos 1674 Rocket 4.5 07:29:16 31° W 07:30:10 34° WNW 07:34:11 10° N
Cosmos 2173 Rocket 4.5 07:27:31 10° N 07:33:41 58° E 07:39:15 12° SSE
Cosmos 1025 Rocket 4.0 07:34:57 29° W 07:35:52 32° WNW 07:39:47 10° NNW
SL-16 R/B 4.5 07:33:07 10° SE 07:36:10 15° E 07:39:13 10° ENE
Cosmos 1727 Rocket 3.9 07:35:39 29° S 07:39:01 88° W 07:45:14 10° N
ATLAS 3B R/B 3.2 07:36:05 24° SW 07:40:56 64° NW 07:48:47 10° NNE
Meteor 1-27 4.2 07:38:41 10° NNW 07:44:29 78° W 07:48:09 24° S
CENTAUR R/B 3.6 07:39:36 10° NW 07:47:53 50° WSW 07:56:42 11° S
Cosmos 1697 Rocket 3.6 07:47:16 23° WSW 07:50:11 38° WNW 07:55:26 10° N
Okean 2 Rocket 4.0 07:48:31 10° NNW 07:52:22 31° W 07:53:16 29° WSW
Cosmos 2369 4.3 07:49:01 22° S 07:52:31 51° ESE 07:58:02 10° NE
Cosmos 1437 Rocket 2.2 07:49:10 10° NNW 07:52:34 82° W 07:53:36 42° S
Cosmos 2228 3.0 07:49:49 10° N 07:54:05 81° E 07:56:41 23° SSE
MOS 1-B Rocket 3.9 07:50:03 10° N 07:55:41 63° WNW 07:58:49 26° SW
Cosmos 1782 2.6 07:52:20 10° NNW 07:55:44 52° W 07:56:27 43° SW
ALOS 3.5 07:53:25 10° NNE 07:57:33 34° E 08:01:16 12° SSE
Cosmos 2100 Rocket 3.9 07:53:33 10° N 07:59:48 87° W 08:05:01 15° S
Okean 1 Rocket 4.1 07:56:21 10° NNW 08:00:01 28° W 08:00:55 26° WSW
FENGYUN 3A 3.8 07:55:18 10° N 08:00:35 61° WNW 08:03:34 26° SW
Cosmos 2333 Rocket 4.1 07:56:31 10° SSE 08:00:44 22° E 08:04:58 10° NE
Cosmos 1862 3.1 08:02:20 38° SW 08:03:25 58° W 08:06:56 10° N
DMSP B5D2-2 4.3 07:58:16 10° SSE 08:03:28 71° ENE 08:08:43 10° N
DELTA 2 R/B (1) 3.9 08:01:04 27° SW 08:03:38 46° SSE 08:08:53 10° E
Resurs 1-4 Rocket 2.9 07:58:38 10° NNE 08:03:43 47° E 08:08:10 13° S
Cosmos 2227 Rocket 2.4 07:58:42 10° NNW 08:04:10 52° WSW 08:08:06 18° S
Cosmos 1725 Rocket 4.4 07:58:49 10° N 08:05:03 65° E 08:11:17 10° SSE
Cosmos 968 Rocket 4.3 08:07:00 22° WSW 08:09:48 39° WNW 08:14:43 10° N
SL-24 R/B - RUBIN 2 3.9 08:05:23 10° NW 08:09:56 52° WSW 08:14:57 10° SSE
Cosmos 1975 Rocket 3.0 08:08:37 28° SSW 08:10:48 68° W 08:15:05 10° N
SL-4 R/B 1.1 08:12:35 10° WNW 08:15:42 70° SW 08:18:46 10° SE
NPP 4.2 08:11:50 10° N 08:16:57 45° WNW 08:20:16 21° SW
Cosmos 2322 Rocket 4.3 08:18:01 10° SE 08:21:57 20° E 08:25:54 10° NE
USA 308 3.2 08:24:23 10° WNW 08:28:15 35° SW 08:31:47 10° SSE
H-2A R/B 2.2 08:24:49 10° NNE 08:29:56 70° ESE 08:34:37 12° S
Envisat 3.0 08:27:16 10° N 08:32:20 72° WNW 08:36:23 16° SSW
Cosmos 2297 Rocket 4.1 08:31:01 10° W 08:32:24 11° W 08:33:04 11° WSW
Cosmos 2058 3.6 08:31:50 21° SW 08:33:51 35° WNW 08:37:30 10° N
IDEFIX/ARIANE 42P 4.0 08:29:48 10° NNW 08:33:53 24° WNW 08:37:13 13° WSW
MOZ.5/SAFIR/RUBIN 5/SL-8 4.0 08:34:32 13° S 08:38:34 50° W 08:43:06 10° NNW
Cosmos 1802 Rocket 4.1 08:32:37 10° NNW 08:38:59 65° W 08:45:19 10° S
ISS -3.0 08:36:43 16° W 08:39:14 48° NNW 08:42:31 10° NE
Cosmos 2233 Rocket 4.1 08:33:33 10° N 08:39:53 82° E 08:46:12 10° S
Cosmos 1980 Rocket 3.2 08:35:44 15° WSW 08:39:55 35° WNW 08:45:07 10° N
Cosmos 2219 3.2 08:35:03 10° NNW 08:40:44 79° WSW 08:46:25 10° SSE
Cosmos 2263 Rocket 2.7 08:37:43 10° NW 08:42:51 38° WSW 08:48:00 10° S
ADEOS Rocket 4.3 08:38:48 10° NNW 08:43:12 23° WNW 08:47:14 11° WSW
SL-16 R/B 4.3 08:38:26 10° SE 08:43:53 34° ENE 08:49:20 10° N
Cosmos 44 4.3 08:41:23 10° S 08:46:15 46° ESE 08:51:22 10° NE
USA 59 Rocket 2.9 08:47:23 10° N 08:49:43 17° NE 08:52:26 10° E
Cosmos 2219 Rocket 4.5 08:46:22 10° SE 08:50:14 19° E 08:54:07 10° NE
Cosmos 2237 4.4 08:45:35 15° SW 08:50:23 63° WNW 08:56:06 10° NNE
Cosmos 1743 3.6 08:48:55 10° SSE 08:51:38 33° E 08:54:22 10° NNE
Aureole 3 Rocket 2.4 08:52:24 10° N 08:56:15 85° W 08:59:24 10° S
Cosmos 1844 Rocket 3.5 08:51:21 10° NNW 08:56:53 56° ENE 09:02:23 10° SE
SeaSat 1 3.8 08:52:43 10° SE 08:57:20 44° ENE 09:01:58 10° NNW
ADEOS II 2.1 08:54:29 10° NNE 08:59:45 83° WNW 09:04:58 10° SSW
NOSS 3-4 (A) 4.0 08:55:10 10° S 09:00:03 42° ESE 09:05:14 10° NE
Spot 2 4.0 08:56:02 10° SSE 09:00:05 79° ENE 09:04:04 10° NNW
NOSS 3-4 (C) 4.1 08:55:57 10° S 09:00:50 42° ESE 09:06:03 10° NE
Cosmos 1933 3.5 08:57:57 10° NNW 09:01:35 44° W 09:05:11 10° SSW
Cosmos 1544 Rocket 4.0 09:00:10 10° NNW 09:04:22 45° W 09:08:35 10° SSW
Cosmos 2360 Rocket 3.3 08:59:15 10° S 09:04:32 42° ESE 09:09:50 10° NE
H-2A R/B 2.3 09:01:28 10° SSE 09:05:23 82° W 09:09:21 10° NNW
CZ-2D R/B 2.5 09:02:19 10° N 09:07:34 53° WNW 09:12:43 10° SW
JB-3 4.3 09:05:14 10° S 09:09:00 56° W 09:12:47 10° NNW
Cosmos 2082 3.9 09:07:18 10° NW 09:12:45 50° WSW 09:18:12 10° S
SL-16 R/B 2.3 09:13:50 10° SSW 09:19:30 76° WNW 09:25:12 10° NNE
Cosmos 1707 2.5 09:18:59 10° N 09:21:39 57° E 09:24:18 10° SSE
AQUA 4.1 09:18:19 10° NNE 09:23:00 69° ESE 09:27:38 10° S
Cosmos 1536 Rocket 4.1 09:22:04 10° SSW 09:26:14 41° WNW 09:30:28 10° N
Cosmos 2098 Rocket 3.4 09:21:49 10° N 09:26:29 77° W 09:31:44 10° S
Meteor 2-3 Rocket 3.9 09:22:05 10° SSW 09:27:42 65° WNW 09:33:24 10° N
